User: anonymous   Login
Location: Wildlife_Club
(35.6000°N, 81.4330°W)
Time: 10:28:11
(UTC-04:00)
Language:

Cosmos 1782 - Orbit

View from above orbital plane
View from above orbital plane
View from above satellite
View from above satellite

Ground track
Ground track

The orbit data is extracted from the following two-line orbital elements,

1 16986U 86074A   15090.38246153  .00003883  00000-0  27397-3 0  9995
2 16986 082.5097 187.1957 0011012 213.9685 146.0837 15.04666588549130
Epoch (UTC): 31 March 2015 09:10:44
Eccentricity: 0.0011012
inclination: 82.5097°
perigee height: 545 km
apogee height: 560 km
right ascension of ascending node: 187.1957°
argument of perigee: 213.9685°
revolutions per day: 15.04666588
mean anomaly at epoch: 146.0837°
orbit number at epoch: 54913

The dashed part of the orbit path shows where the satellite is in the earth's shadow,  

DLR